Location: ????????
(55.6773°N, 38.2421°E)
Time: 03:51:59
(UTC+00:00)

Envisat - Visible Passes

Search period start: 14 July 2024 00:00
Search period end: 24 July 2024 00:00
Orbit: 762 x 764 km, 98.3° (Epoch: 13 July)

Date Brightness Start Highest point End Pass type
(mag) Time Alt. Az. Time Alt. Az. Time Alt. Az.
14 Jul 4.9 23:50:55 10° NE 23:55:11 26° E 23:59:25 10° SSE visible
15 Jul 5.5 23:14:36 10° NE 23:17:17 14° E 23:19:58 10° ESE visible
17 Jul 5.2 23:37:59 10° NE 23:41:51 21° E 23:45:41 10° SE visible
18 Jul 5.7 23:02:22 10° ENE 23:03:52 11° E 23:05:22 10° E visible
20 Jul 4.6 00:01:47 10° NNE 00:06:19 31° E 00:10:50 10° SSE visible
20 Jul 5.4 23:25:09 10° NE 23:28:29 17° E 23:31:48 10° SE visible
22 Jul 4.9 23:48:46 10° NE 23:53:00 26° E 23:57:12 10° SSE visible
23 Jul 5.5 23:12:30 10° NE 23:15:05 14° E 23:17:39 10° ESE visible
